Location: Unspecified
(33.6682°S, 0.0000°E)
Time: 16:35:16
(UTC+00:00)

Vanguard 2 Rocket - Pass Details

Date: 21 June 2019
Orbit: 554 x 3326 km, 32.9° (Epoch: 18 July)

Event Time Altitude Azimuth Distance (km) Brightness Sun altitude
Rises 14:37:44 0° 261° (W) 3,898 10.5 21.9°
Reaches altitude 10° 14:41:11 10° 269° (W) 2,565 9.9 21.5°
Maximum altitude 14:46:10 32° 331° (NNW) 1,159 9.5 20.8°
Drops below altitude 10° 14:49:54 10° 36° (NE) 1,895 8.8 20.3°
Sets 14:52:06 0° 47° (NE) 2,728 9.4 20.0°
